AEROCUBE 6B

Last updated on Sun Dec 14 2025 00:03:49 GMT+0000 (Coordinated Universal Time)

1 40046U 14033AN 25346.42290820 .00011682 00000+0 10154-2 0 9992 2 40046 97.7035 150.3413 0037806 273.2698 86.4199 14.96584772618796
UTC large
Height (km)
Speed (km/s)
/
Latitude / Longitude
Inclination (degrees)
Orbital Period (minutes)
Azimuth
Elevation
Range (km)
Doppler Factor

Next 0 passes for location: London (51.5072 / 0.1276)

Sorry there are no passes over London.